Regional Weather Roundup
Issued by NWS

Home | Current Version | Previous Version | Graphics & Text | Print | Product List | Glossary On
Versions: 1 2 3 4 5 6 7 8 9 10 11 12 13 14 15 16 17 18 19 20 21 22 23 24 25 26 27 28 29 30 31 32 33 34 35 36 37 38 39 40 41 42 43 44 45 46 47 48 49 50
000
ASUS43 KIND 030159
RWRIN

WEATHER ROUNDUP FOR INDIANA
NATIONAL WEATHER SERVICE INDIANAPOLIS IN
1000 PM EDT WED SEP 02 2015

NOTE: "FAIR" INDICATES FEW OR NO CLOUDS BELOW 12,000 FEET WITH NO
SIGNIFICANT WEATHER AND/OR OBSTRUCTIONS TO VISIBILITY.

* - STATION DOES NOT REPORT WEATHER SUCH AS PRECIPITATION OR FOG.

+ - STATION NOT QUALITY CONTROLLED BY THE NATIONAL WEATHER SERVICE.
    USE DATA WITH CAUTION...ESPECIALLY DEWPOINT AND RELATIVE
    HUMIDITY OBSERVATIONS.

INZ001>003-010>013-019-020-030300-
NORTHWEST INDIANA

CITY           SKY/WX    TMP DP  RH WIND       PRES   REMARKS
GARY /AIRPORT/ MOCLDY    75  70  83 CALM      29.97S
KNOX *+        PTCLDY    72  72 100 CALM      29.99R
MONTICELLO +   MOCLDY    76  72  87 CALM      30.00R
RENSSELAER +   MOCLDY    73  72  94 S5        30.00R

$$

LMZ046-743>745-030300-
SOUTHERN LAKE MICHIGAN

STATION/POSITION TIME  TEMP    WIND        PRES    WAVE
                       AIR SEA DIR/SP/G            HT
                 (UTC) (F)     (DEG/KT/KT) (MB)    (FT)
BURNS HARBOR     0100   83     210/  9/ 12 1015.2R
MICHIGAN CITY    0100   81     130/  3/  4   N/A
5NW MICH CITY    0100   77 76  140/  4/  6   N/A     1

$$

INZ004-005-014>016-021>024-030300-
NORTH CENTRAL INDIANA

CITY           SKY/WX    TMP DP  RH WIND       PRES   REMARKS
GOSHEN         CLOUDY    75  70  84 S3        30.01R
PERU/GRISSOM   MOCLDY    75  69  81 SW6       30.01R
SOUTH BEND     MOCLDY    78  70  76 SW6       30.01R

$$

INZ006>009-017-018-025>027-030300-
NORTHEAST INDIANA

CITY           SKY/WX    TMP DP  RH WIND       PRES   REMARKS
ANGOLA *+      CLEAR     73  72  94 CALM      30.02R
FORT WAYNE     MOCLDY    76  69  79 S3        30.03R

$$

INZ028-029-035-036-043>045-051>053-030300-
WEST CENTRAL INDIANA

CITY           SKY/WX    TMP DP  RH WIND       PRES   REMARKS
CRAWFORDSVL +  PTCLDY    71  65  83 S3        30.03R
GREENCASTLE +  CLEAR     72  66  83 CALM      30.04R
LAFAYETTE      MOCLDY    76  68  76 W3        30.00R
TERRE HAUTE    CLEAR     70  67  90 CALM      30.03R

$$

INZ030>032-037>040-046>048-054>057-064-065-030300-
CENTRAL INDIANA

CITY           SKY/WX    TMP DP  RH WIND       PRES   REMARKS
COLUMBUS       CLEAR     73  66  78 CALM      30.04R
FRANKFORT +    PTCLDY    73  73 100 S3        30.04R
GREENWOOD *+   PTCLDY    72  68  88 CALM      30.05
INDIANAPOLIS   PTCLDY    78  68  71 SW6       30.03R
-EAGLE CREEK   CLEAR     78  69  73 CALM      30.03R
KOKOMO *+      MOCLDY    75  57  53 SW3       30.03R
MT COMFORT *+  PTCLDY    72  72 100 CALM      30.04S
SHELBYVILLE    PTCLDY    74  68  81 E3        30.03R
ZIONSVILLE +   PTCLDY    71  67  86 CALM      30.04S

$$

INZ033-034-041-042-049-050-058-059-030300-
EAST CENTRAL INDIANA

CITY           SKY/WX    TMP DP  RH WIND       PRES   REMARKS
MUNCIE         CLEAR     75  66  73 SW3       30.04R

$$

INZ060-061-067>069-081>083-085>088-030300-
SOUTHWEST INDIANA

CITY           SKY/WX    TMP DP  RH WIND       PRES   REMARKS
EVANSVILLE     CLEAR     79  67  66 CALM      30.03R
HUNTINGBURG *+ CLEAR     75  66  73 CALM      30.03R

$$

INZ062-063-066-070>080-084-089>092-030300-
SOUTH CENTRAL AND SOUTHEAST INDIANA

CITY           SKY/WX    TMP DP  RH WIND       PRES   REMARKS
BLOOMINGTON    CLEAR     72  70  93 CALM      30.05R
SEYMOUR +      CLEAR     73  70  88 CALM      30.03R

$$




USA.gov is the U.S. government's official web portal to all federal, state and local government web resources and services.